Location: Asheville, NC
(35.6000°N, 82.5500°W)
Time: 02:29:10
(UTC-04:00)

SRMSAT - Visible Passes

Search period start: 18 July 2018 00:00
Search period end: 28 July 2018 00:00
Orbit: 848 x 866 km, 20.0° (Epoch: 17 July)

Date Brightness Start Highest point End Pass type
(mag) Time Alt. Az. Time Alt. Az. Time Alt. Az.
18 Jul ? 04:25:13 15° SSE 04:25:13 15° SSE 04:27:32 10° SE visible
19 Jul ? 04:13:13 14° SSE 04:13:13 14° SSE 04:14:32 10° SE visible
19 Jul ? 05:56:13 10° SW 05:59:18 14° S 06:02:23 10° SSE visible
20 Jul ? 04:01:17 11° SE 04:01:17 11° SE 04:01:32 10° SE visible
20 Jul ? 05:43:25 10° SW 05:46:16 14° S 05:49:06 10° SSE visible
21 Jul ? 05:31:26 11° SSW 05:33:14 13° S 05:35:46 10° SSE visible
22 Jul ? 05:19:40 12° SSW 05:20:11 12° SSW 05:22:19 10° S visible
23 Jul ? 05:07:59 11° S 05:07:59 11° S 05:08:42 10° S visible
27 Jul ? 22:33:48 10° SSW 22:34:14 11° SSW 22:34:14 11° SSW visible
